Location: Emory University Observatory
(33.7903°N, 84.3267°W)
Time: 10:09:21

Envisat - Pass Details

Date: 16 October 2017
Orbit: 764 x 766 km, 98.2° (Epoch: 24 March)

Event Time Altitude Azimuth Distance (km) Brightness Sun altitude
Exits shadow 20:46:13 17° 24° (NNE) 1,890 4.8 -22.4°
Drops below altitude 10° 20:47:34 10° 13° (NNE) 2,308 5.4 -22.7°
Sets 20:50:09 0° 2° (N) 3,237 6.3 -23.3°
